x

Gravelly Shoals Light Mi (gslm4) Weather Station

12:40pm - Fri 24th Oct 2014 All times are CDT. -5 hours from GMT.

  • Wind
    9mph, 10mph gusts
  • Air Temp 50°f
  • Sea Pressure 1016.3mb
  • Gravelly Shoals Light Mi
  • Gravelly Shoals Light Mi

More Historic Weather Station data

Upgrade to MSW Pro to gain access to the past 30 days of data for over 8000 Wavebouys and Weather Stations around the globe.

Join Pro

Comparision Forecast

View Surf forecast
   
Fri 10/24 12:40pm 9 10 mph 1016.3mb 50f
12:30pm 1 8 mph 1016.3mb 50f
12:20pm 7 9 mph 1016.6mb 49f
12:10pm 6 9 mph 1016.9mb 49f
12:00pm 8 10 mph 1017.3mb 49f
11:40am 8 10 mph 1017.6mb 49f
11:30am 9 10 mph 1017.6mb 49f
11:21am 9 14 mph 1017.6mb 49f
11:20am 9 13 mph 1017.6mb 49f
11:10am 11 13 mph 1017.6mb 49f
11:00am 9 10 mph 1017.6mb 49f
10:40am 11 14 mph 1017.9mb 49f
10:30am 13 14 mph 1017.9mb 49f
10:21am 10 14 mph 1017.9mb 49f
10:20am 10 11 mph 1018.3mb 49f
10:10am 10 11 mph 1017.9mb 49f
10:00am 10 11 mph 1017.9mb 49f
9:40am 11 14 mph 1017.9mb 49f
9:30am 9 11 mph 1017.9mb 49f
9:20am 9 11 mph 1017.9mb 49f
9:10am 10 13 mph 1017.9mb 49f
9:00am 6 14 mph 1017.9mb 48f
8:40am 8 11 mph 1017.9mb 49f
8:30am 5 9 mph 1017.9mb 48f
8:20am 1 10 mph 1017.9mb 49f
8:10am  -  6 mph 1018.3mb 49f
8:00am 3 7 mph 1018.3mb 50f
7:40am  -  6 mph 1017.9mb 49f
7:30am 5 8 mph 1017.9mb 49f
7:20am  -  3 mph 1017.9mb 48f
7:19am  -  8 mph 1017.9mb 48f
7:10am 1 8 mph 1017.9mb 48f
7:00am 5 7 mph 1017.9mb 48f
6:40am 3 6 mph 1017.9mb 48f
6:30am 6 8 mph 1018.3mb 48f
6:20am 6 10 mph 1018.3mb 48f
6:19am 2 10 mph 1018.3mb 48f
6:10am 3 8 mph 1018.3mb 48f
6:00am 2 9 mph 1018.3mb 48f
5:40am 3 8 mph 1018.3mb 48f
5:30am 2 8 mph 1018.3mb 48f
5:20am 2 7 mph 1018.3mb 48f
5:19am  -  13 mph 1018.3mb 48f
5:10am 2 7 mph 1018.3mb 48f
5:00am 6 9 mph 1018.3mb 47f
4:40am 6 9 mph 1018.3mb 47f
4:30am 9 13 mph 1018.3mb 47f
4:20am 10 14 mph 1018.3mb 47f
4:18am 10 14 mph 1017.9mb 47f
4:10am 9 14 mph 1017.9mb 47f
4:00am 10 14 mph 1017.9mb 47f
3:40am 7 13 mph 1017.9mb 47f
3:30am 9 11 mph 1017.9mb 47f
3:20am 10 13 mph 1017.9mb 47f
3:18am 10 13 mph 1017.9mb 47f
3:10am 9 13 mph 1017.9mb 47f
3:00am 7 11 mph 1017.9mb 47f
2:40am 3 7 mph 1018.3mb 47f
2:30am 6 10 mph 1018.3mb 47f
2:20am 6 8 mph 1018.6mb 47f
2:17am 5 11 mph 1018.6mb 47f
2:10am 5 11 mph 1018.6mb 47f
2:00am 9 11 mph 1018.6mb 47f
1:40am 9 11 mph 1019mb 46f
1:30am 10 11 mph 1019.3mb 47f
1:20am 7 8 mph 1019mb 46f
1:17am 7 9 mph 1019.3mb 47f
1:10am 7 8 mph 1019mb 47f
1:00am 6 9 mph 1019mb 46f
12:40am 7 9 mph 1019mb 47f
12:30am 8 9 mph 1019mb 47f
12:20am 7 8 mph 1019mb 47f
12:17am 7 9 mph 1019mb 48f
12:10am 6 8 mph 1019.3mb 47f
12:00am  -  3 mph 1019.3mb 48f
Thu 10/23 11:40pm 2 6 mph 1019.3mb 48f
11:30pm 5 9 mph 1019.3mb 49f
11:20pm 6 8 mph 1019.6mb 50f
11:16pm 5 10 mph 1019.6mb 50f
11:10pm 5 8 mph 1019.3mb 50f
11:00pm 5 7 mph 1019.3mb 50f
10:40pm 7 10 mph 1019.3mb 49f
10:30pm 1 3 mph 1019.3mb 49f
10:20pm 2 7 mph 1019.3mb 49f
10:16pm  -  9 mph 1019.6mb 49f
10:10pm 1 6 mph 1019.6mb 49f
10:00pm  -  3 mph 1019.3mb 49f
9:40pm  -  6 mph 1019.6mb 49f
9:30pm 2 6 mph 1019.6mb 49f
9:20pm 3 9 mph 1020mb 49f
9:15pm 6 10 mph 1019.6mb 49f
9:10pm 8 9 mph 1020mb 49f
9:00pm 7 9 mph 1020mb 49f
8:40pm 6 9 mph 1020mb 49f
8:30pm 5 10 mph 1020mb 49f
8:20pm 6 10 mph 1020mb 48f
8:15pm 5 11 mph 1020mb 48f
8:10pm 8 11 mph 1020mb 48f
8:00pm 3 7 mph 1020.3mb 47f
7:40pm 1 5 mph 1020.3mb 47f
7:30pm 5
mph
1020mb 47f
7:20pm 3 6 mph 1020mb 47f
7:15pm 2 7 mph 1020.3mb 46f
7:10pm 2 6 mph 1020.3mb 46f
7:00pm 5 6 mph 1020mb 47f
6:30pm 5 6 mph 1020mb 46f
6:20pm 5 6 mph 1020.3mb 46f
6:14pm 5 10 mph 1020.3mb 46f
6:10pm 5 7 mph 1020.3mb 46f
6:00pm 2 3 mph 1020.3mb 46f
5:40pm  -  7 mph 1020.7mb 46f
5:30pm 2 8 mph 1020.7mb 46f
5:20pm 8 10 mph 1021mb 46f
5:14pm 7 11 mph 1021mb 46f
5:10pm 7 10 mph 1021mb 46f
5:00pm 9 11 mph 1021mb 46f
4:40pm 6 10 mph 1021mb 46f
4:30pm 9 11 mph 1021mb 46f
4:20pm 10 11 mph 1021.3mb 45f
4:13pm 10 14 mph 1021.3mb 45f
4:10pm 10 14 mph 1021.3mb 45f
4:00pm 11 13 mph 1021.3mb 45f
3:40pm 10 14 mph 1021.3mb 44f
3:30pm 6 13 mph 1021.3mb 44f
3:20pm 3 11 mph 1021.3mb 43f
3:13pm 3 16 mph 1021.7mb 43f
3:10pm 3 11 mph 1021.7mb 43f
3:00pm 2 8 mph 1021.7mb 43f
2:40pm 10 13 mph 1022mb 43f
2:30pm 10 16 mph 1022mb 42f
2:20pm 9 15 mph 1022.4mb 42f
2:12pm 11 15 mph 1022.4mb 42f
2:10pm 10 15 mph 1022.4mb 42f
2:00pm 13 15 mph 1022.7mb 42f
1:40pm 9 14 mph 1022.7mb 42f
1:30pm 11 14 mph 1023mb 41f
1:20pm 10 13 mph 1023mb 42f
1:10pm 10 18 mph 1023mb 41f
1:00pm 13 16 mph 1023mb 41f
12:50pm 16 20 mph 1023.4mb 41f
12:40pm 14 18 mph 1023.7mb 41f
12:30pm 11 20 mph 1023.7mb 41f
12:20pm 11 18 mph 1024mb 41f
12:12pm 13 20 mph 1024mb 41f
12:10pm 16 20 mph 1024mb 41f
12:00pm 13 18 mph 1024mb 41f
11:50am 13 16 mph 1024.4mb 41f
11:40am 13 17 mph 1024.4mb 41f
11:30am 14 15 mph 1024.4mb 42f
11:20am 7 14 mph 1024.4mb 42f
11:11am 10 16 mph 1024.7mb 42f
11:10am 10 14 mph 1024.4mb 42f
11:00am 14 16 mph 1024.7mb 42f
10:50am 11 14 mph 1024.7mb 42f
10:40am 10 13 mph 1024.7mb 42f
10:30am 9 14 mph 1024.7mb 42f
10:20am 9 13 mph 1024.7mb 42f
10:11am 10 14 mph 1024.7mb 42f
10:10am 10 13 mph 1024.7mb 42f
10:00am 10 11 mph 1024.7mb 42f
9:50am 11
mph
1024.7mb 41f
9:40am 10 13 mph 1024.7mb 41f
9:30am 11 13 mph 1025.1mb 41f
9:20am 11 14 mph 1025.1mb 41f
9:10am 11 14 mph 1025.1mb 41f
9:00am 10 11 mph 1025.1mb 41f
8:50am 9 10 mph 1025.1mb 41f
8:40am 9 11 mph 1024.7mb 40f
8:30am 10 13 mph 1024.7mb 41f
8:20am 11 13 mph 1024.7mb 42f
8:10am 8 10 mph 1024.4mb 42f
8:00am 8 10 mph 1024.7mb 42f
7:50am 9 10 mph 1024.7mb 41f
7:40am 9 10 mph 1024.7mb 41f
7:30am 9 10 mph 1024.7mb 41f
7:20am 8 9 mph 1024.7mb 41f
7:10am 8 9 mph 1024.7mb 41f
7:00am 7 9 mph 1024.7mb 41f
6:50am 7 8 mph 1024.7mb 41f
6:40am 7 8 mph 1024.7mb 41f
6:30am 7 8 mph 1024.7mb 41f
6:20am 6 7 mph 1024.7mb 41f
6:10am 6 7 mph 1024.7mb 41f
6:09am 6 9 mph 1024.7mb 41f
6:00am 6
mph
1024.7mb 41f
5:50am 3 5 mph 1024.7mb 41f
5:40am 3 6 mph 1025.1mb 41f
5:30am 6 7 mph 1024.7mb 41f
5:20am 7 9 mph 1024.7mb 40f
5:10am 8 9 mph 1025.1mb 40f
5:09am 7 9 mph 1024.7mb 40f
5:00am 7
mph
1025.1mb 40f
4:50am 6 7 mph 1025.1mb 40f
4:40am 7 8 mph 1025.1mb 41f
4:30am 6 7 mph 1025.1mb 41f
4:20am 6 7 mph 1025.1mb 40f
4:10am 6 8 mph 1025.1mb 40f
4:08am 6 10 mph 1025.1mb 40f
4:00am 7 9 mph 1025.1mb 40f
3:50am 8 10 mph 1025.4mb 41f
3:40am 5 6 mph 1025.4mb 43f
3:30am 5 6 mph 1025.4mb 43f
3:20am 5 6 mph 1025.4mb 43f
3:10am 6 7 mph 1025.4mb 44f
3:08am 6 7 mph 1025.4mb 44f
3:00am 6
mph
1025.4mb 44f
2:50am 3 5 mph 1025.4mb 44f
2:40am 3 6 mph 1025.7mb 44f
2:30am 5 7 mph 1025.7mb 44f
2:20am 6 7 mph 1025.7mb 44f
2:10am 6 8 mph 1026.1mb 44f
2:08am 6 8 mph 1026.1mb 44f
2:00am 6 8 mph 1026.1mb 45f
1:50am 6 8 mph 1026.1mb 45f
1:40am 6 8 mph 1026.1mb 45f
1:30am 6 7 mph 1025.7mb 45f
1:20am 7 8 mph 1026.1mb 44f
1:10am 7 8 mph 1026.1mb 45f
1:07am 7 8 mph 1026.1mb 45f
1:00am 6 7 mph 1026.1mb 45f
12:50am 6 7 mph 1026.1mb 45f
12:40am 6 7 mph 1026.1mb 45f
12:30am 5 6 mph 1026.1mb 45f
12:20am 5 6 mph 1026.1mb 45f
12:10am 5 7 mph 1026.1mb 45f
12:07am 5 7 mph 1026.1mb 45f
12:00am 5 6 mph 1026.4mb 45f
Wed 10/22 11:50pm 5 6 mph 1026.1mb 45f
11:40pm 3 5 mph 1026.4mb 45f
11:30pm  -  3 mph 1026.4mb 45f
11:20pm 2 3 mph 1026.4mb 45f
11:10pm  -  2 mph 1026.4mb 45f
11:06pm  -  3 mph 1026.4mb 45f
11:00pm  -  2 mph 1026.4mb 45f
10:50pm 2 3 mph 1026.4mb 45f
10:40pm 1 3 mph 1026.4mb 45f
10:30pm 2 3 mph 1026.4mb 45f
10:20pm 1 2 mph 1026.4mb 45f
10:10pm 2 3 mph 1026.8mb 45f
10:06pm 2 6 mph 1026.8mb 45f
10:00pm 3 6 mph 1026.8mb 45f
9:50pm 2 3 mph 1026.4mb 45f
9:40pm 3
mph
1026.8mb 45f
9:30pm 3 5 mph 1027.1mb 45f
9:20pm 5 6 mph 1026.8mb 45f
9:10pm 3 5 mph 1027.1mb 45f
9:06pm 2 8 mph 1027.1mb 45f
9:00pm 5 8 mph 1027.1mb 45f
8:50pm 3 6 mph 1027.1mb 45f
8:40pm 6 8 mph 1027.1mb 45f
8:30pm 5 8 mph 1027.1mb 45f
8:20pm 5 6 mph 1027.1mb 45f
8:10pm 2 5 mph 1027.1mb 45f
8:05pm 3 8 mph 1027.1mb 45f
8:00pm 3 5 mph 1027.1mb 45f
7:50pm 2 5 mph 1026.8mb 45f
7:40pm 3 8 mph 1027.1mb 45f
7:30pm 5 7 mph 1027.1mb 45f
7:20pm 6 7 mph 1027.1mb 45f
7:10pm 5 7 mph 1027.1mb 45f
7:05pm 3 7 mph 1027.1mb 45f
7:00pm 6 7 mph 1027.1mb 45f
6:50pm 3 6 mph 1027.1mb 45f
6:30pm 5 6 mph 1027.1mb 45f
6:20pm 5 6 mph 1027.1mb 45f
6:10pm 5 6 mph 1027.1mb 45f
6:04pm 6 7 mph 1027.1mb 45f
6:00pm 3 6 mph 1027.1mb 45f
5:50pm 3 7 mph 1027.1mb 45f
5:40pm 5 6 mph 1027.1mb 45f
5:30pm 6 7 mph 1027.1mb 46f
5:20pm 5 7 mph 1027.1mb 45f
5:10pm 5 7 mph 1027.4mb 45f
5:04pm 6 8 mph 1027.4mb 45f
5:00pm 6 7 mph 1027.4mb 45f
4:50pm 5 7 mph 1027.4mb 45f
4:40pm 6 8 mph 1027.4mb 45f
4:30pm 6 7 mph 1027.8mb 45f
4:20pm 6 8 mph 1027.8mb 46f
4:10pm 7 8 mph 1027.8mb 46f
4:04pm 6 8 mph 1027.8mb 46f
4:00pm 6 7 mph 1027.8mb 46f
3:50pm 6 8 mph 1027.8mb 46f
3:40pm 5 7 mph 1027.8mb 46f
3:20pm 6 7 mph 1027.8mb 46f
3:10pm 6 7 mph 1027.8mb 46f
3:03pm 3 9 mph 1027.8mb 46f
3:00pm 6 8 mph 1027.8mb 46f
2:50pm 6 8 mph 1027.8mb 46f
2:40pm 5 7 mph 1027.8mb 46f
2:30pm 7 8 mph 1027.8mb 45f
2:20pm 7 9 mph 1028.1mb 45f
2:10pm 8 9 mph 1028.1mb 45f
2:03pm 7 15 mph 1028.4mb 45f
2:00pm 9 10 mph 1028.1mb 45f
1:50pm 8 13 mph 1028.1mb 45f
1:40pm 11 13 mph 1028.4mb 45f
1:30pm 10 13 mph 1028.4mb 45f
1:20pm 11 15 mph 1028.4mb 45f
1:10pm 13 15 mph 1028.4mb 45f
1:02pm 14 18 mph 1028.4mb 45f
1:00pm 13 16 mph 1028.4mb 45f
12:50pm 14 16 mph 1028.4mb 45f
12:40pm 15 17 mph 1028.4mb 45f
12:30pm 16 18 mph 1028.4mb 45f
12:20pm 16 18 mph 1028.4mb 45f
12:10pm 16 17 mph 1028.8mb 45f
12:02pm 15 20 mph 1028.8mb 45f
12:00pm 16 18 mph 1028.8mb 45f
11:50am 16 17 mph 1029.1mb 45f
11:40am 16 18 mph 1029.1mb 45f
11:30am 15 18 mph 1029.1mb 45f
11:20am 16 18 mph 1029.1mb 44f
11:10am 16 20 mph 1029.1mb 44f
11:02am 16 20 mph 1029.1mb 44f
11:00am 15 18 mph 1029.1mb 44f
10:50am 16 18 mph 1029.1mb 44f
10:40am 16 20 mph 1029.1mb 44f
10:30am 14 16 mph 1029.5mb 44f
10:20am 15 17 mph 1029.1mb 44f
10:01am 14 17 mph 1029.1mb 45f
10:00am 14 16 mph 1029.1mb 45f
9:50am 14 17 mph 1029.1mb 45f
9:40am 14 16 mph 1029.1mb 45f
9:30am 15 16 mph 1029.1mb 45f
9:20am 15 16 mph 1029.1mb 45f
9:10am 14 17 mph 1028.8mb 45f
9:01am 14 17 mph 1028.8mb 44f
9:00am 14 16 mph 1028.8mb 44f
8:50am 14 16 mph 1028.8mb 44f
8:40am 15 17 mph 1028.8mb 44f
8:30am 15 17 mph 1028.8mb 44f
8:20am 15 17 mph 1028.4mb 44f
8:10am 14 15 mph 1028.4mb 44f
8:00am 13 16 mph 1028.4mb 44f
7:50am 14 18 mph 1028.4mb 44f
7:40am 16 18 mph 1028.1mb 44f
7:30am 15 17 mph 1028.1mb 44f
7:20am 15 18 mph 1028.1mb 45f
7:10am 13 16 mph 1027.8mb 45f
7:00am 15 17 mph 1027.8mb 45f
6:50am 15 18 mph 1027.8mb 45f
6:40am 15 17 mph 1027.4mb 45f
6:30am 14 16 mph 1027.4mb 45f
6:20am 13 17 mph 1027.4mb 45f
6:10am 15 20 mph 1027.1mb 45f
6:00am 16 20 mph 1027.1mb 45f
5:50am 14 18 mph 1027.1mb 45f
5:40am 15 20 mph 1027.1mb 45f
5:30am 13 20 mph 1027.1mb 44f
5:20am 14 15 mph 1026.8mb 44f
5:10am 13 16 mph 1026.8mb 44f
5:00am 15 18 mph 1026.8mb 44f
4:40am 15 20 mph 1026.4mb 45f
4:30am 16 18 mph 1026.4mb 45f
4:21am 16 20 mph 1026.4mb 45f
4:20am 16 18 mph 1026.4mb 45f
4:10am 15 18 mph 1026.4mb 45f
4:00am 16 20 mph 1026.4mb 45f
3:50am 14 20 mph 1026.1mb 45f
3:40am 15 17 mph 1026.1mb 45f
3:30am 15 20 mph 1026.1mb 45f
3:20am 15 18 mph 1026.1mb 45f
3:10am 14 20 mph 1026.1mb 44f
3:00am 16 21 mph 1026.1mb 45f
2:50am 16 20 mph 1025.7mb 44f
2:40am 17 21 mph 1025.7mb 44f
2:30am 15 20 mph 1025.7mb 44f
2:20am 10 25 mph 1025.7mb 44f
2:10am 14 24 mph 1026.1mb 44f
2:00am 13 21 mph 1025.7mb 44f
1:50am 15 25 mph 1025.7mb 44f
1:40am 15 22 mph 1025.7mb 44f
1:30am 17 21 mph 1025.4mb 44f
1:20am 15 23 mph 1025.7mb 44f
1:19am 17 24 mph 1025.7mb 44f
1:10am 15 22 mph 1025.7mb 44f
1:00am 18 21 mph 1025.7mb 44f
12:50am 16 23 mph 1025.7mb 44f
12:40am 18 24 mph 1025.4mb 44f
12:30am 18 22 mph 1025.4mb 44f
12:20am 18 25 mph 1025.4mb 44f
12:19am 18 29 mph 1025.4mb 44f
12:10am 16 22 mph 1025.4mb 44f
12:00am 18 25 mph 1025.4mb 44f
Tue 10/21 11:50pm 18 23 mph 1025.4mb 44f
11:40pm 21 29 mph 1025.4mb 44f
11:20pm 20 24 mph 1025.1mb 44f
11:19pm 18 24 mph 1025.1mb 44f
11:10pm 21 24 mph 1025.1mb 44f
11:00pm 21 23 mph 1025.4mb 44f
10:50pm 18 23 mph 1025.4mb 44f
10:40pm 20 24 mph 1025.4mb 44f
10:30pm 15 24 mph 1025.4mb 44f
10:20pm 16 22 mph 1025.4mb 45f
10:18pm 16 22 mph 1025.4mb 44f
10:10pm 20 22 mph 1025.1mb 44f
10:00pm 16 20 mph 1025.1mb 43f
9:50pm 17 21 mph 1025.1mb 43f
9:40pm 17 21 mph 1025.1mb 43f
9:30pm 18 21 mph 1025.1mb 44f
9:20pm 18 21 mph 1025.1mb 44f
9:18pm 17 23 mph 1025.1mb 43f
9:10pm 17 22 mph 1025.1mb 44f
9:00pm 16 21 mph 1025.1mb 44f
8:50pm 18 22 mph 1024.7mb 44f
8:40pm 21 23 mph 1024.7mb 43f
8:30pm 18 22 mph 1024.7mb 43f
8:20pm 20 24 mph 1024.7mb 44f
8:17pm 20 26 mph 1024.7mb 44f
8:10pm 22 24 mph 1024.7mb 44f
8:00pm 21 24 mph 1024.4mb 44f
7:50pm 21 24 mph 1024.4mb 44f
7:40pm 22 25 mph 1024mb 44f
7:30pm 21 25 mph 1024mb 44f
7:20pm 22 26 mph 1024mb 44f
7:17pm 23 28 mph 1024mb 44f
7:10pm 22 28 mph 1024mb 44f
7:00pm 23 26 mph 1023.7mb 44f
6:50pm 22 26 mph 1023.7mb 44f
6:30pm 22 26 mph 1023.4mb 44f
6:20pm 23 25 mph 1023.4mb 44f
6:16pm 22 25 mph 1023.4mb 44f
6:00pm 21 24 mph 1023.4mb 45f
5:50pm 22 24 mph 1023mb 45f
5:40pm 21 25 mph 1023mb 44f
5:30pm 21 25 mph 1023mb 45f
5:20pm 22 28 mph 1022.7mb 45f
5:16pm 22 29 mph 1022.7mb 45f
5:10pm 22 28 mph 1022.7mb 45f
5:00pm 25 29 mph 1022.4mb 45f
4:50pm 24 26 mph 1022.4mb 45f
4:40pm 21 26 mph 1022.4mb 45f
4:30pm 21 24 mph 1022mb 45f
4:20pm 22 25 mph 1022mb 45f
4:16pm 22 24 mph 1022mb 45f
4:10pm 22 24 mph 1022mb 45f
4:00pm 21 24 mph 1022mb 45f
3:50pm 18 23 mph 1021.7mb 46f
3:40pm 20 22 mph 1021.7mb 45f
3:30pm 20 23 mph 1021.7mb 45f
3:20pm 20 25 mph 1021.7mb 45f
3:15pm 22 26 mph 1021.3mb 45f
3:10pm 23 26 mph 1021.3mb 45f
3:00pm 22 25 mph 1021.3mb 45f
2:50pm 18 24 mph 1021.3mb 45f
2:40pm 22 25 mph 1021.3mb 44f
2:30pm 22 25 mph 1021mb 44f
2:20pm 23 26 mph 1021mb 44f
2:15pm 22 28 mph 1021mb 44f
2:10pm 23 26 mph 1021mb 45f
2:00pm 18 28 mph 1021mb 44f
1:50pm 24 26 mph 1021mb 45f
1:40pm 22 25 mph 1020.7mb 44f
1:30pm 23 26 mph 1020.7mb 44f
1:20pm 24 26 mph 1020.7mb 44f
1:14pm 22
mph
1020.7mb 44f
1:10pm 24 29 mph 1020.7mb 44f
1:00pm 23 29 mph 1020.7mb 44f
12:40pm 25 28 mph 1020.3mb 44f
12:30pm 23 30 mph 1020.3mb 44f
12:22pm 25 30 mph 1020.3mb 44f
12:20pm 25 28 mph 1020.3mb 44f
12:10pm 22 28 mph 1020.3mb 44f
12:00pm 26 30 mph 1020.3mb 44f
11:50am 26 31 mph 1020mb 44f
11:40am 26 31 mph 1020.3mb 44f
11:30am 24 30 mph 1020mb 44f
11:20am 25 30 mph 1020mb 44f
11:14am 26 59 mph 1020mb 44f
11:10am 28 32 mph 1020mb 44f
11:00am 26 32 mph 1019.6mb 44f
10:58am 25 29 mph 1019.6mb 44f
10:50am 24 30 mph 1019.6mb 44f
10:40am 26 31 mph 1019.6mb 44f
10:30am 24 31 mph 1019.6mb 44f
10:20am 24 31 mph 1019.6mb 44f
10:13am 29
mph
1019.6mb 44f
10:10am 25 32 mph 1019.3mb 44f
10:00am 26 30 mph 1019.3mb 44f
9:56am 23 29 mph 1019.3mb 44f
9:50am 23 32 mph 1019mb 44f
9:40am 25 30 mph 1019mb 44f
9:30am 26 31 mph 1019mb 44f
9:20am 28 33 mph 1019mb 44f
9:13am 28
mph
1018.6mb 45f
9:10am 28 31 mph 1018.6mb 45f
9:00am 30 32 mph 1018.6mb 45f
8:52am 25 29 mph 1018.6mb 45f
8:50am 25 30 mph 1018.6mb 45f
8:40am 25 31 mph 1018.3mb 45f
8:30am 28 32 mph 1018.3mb 45f
8:20am 26 31 mph 1017.9mb 45f
8:12am 24
mph
1017.9mb 45f
8:10am 28 33 mph 1017.9mb 45f
8:00am 25 30 mph 1017.9mb 46f
7:52am 24 29 mph 1017.6mb 46f
7:50am 24 29 mph 1017.6mb 46f
7:40am 22 31 mph 1017.6mb 46f
7:20am 25 32 mph 1017.3mb 46f
7:12am 26
mph
1016.9mb 46f
7:10am 24 30 mph 1016.9mb 46f
7:00am 24 30 mph 1016.9mb 46f
6:50am 25 29 mph 1016.6mb 46f
6:40am 25 28 mph 1016.3mb 46f
6:30am 24 28 mph 1016.3mb 46f
6:20am 23 28 mph 1016.3mb 47f
6:11am 21 26 mph 1015.9mb 46f
6:10am 21 25 mph 1015.9mb 46f
6:00am 24 26 mph 1015.6mb 46f
5:50am 24 28 mph 1015.6mb 46f
5:40am 25 29 mph 1015.6mb 46f
5:30am 23 29 mph 1015.6mb 46f
5:20am 22 28 mph 1015.2mb 46f
5:11am 23
mph
1014.9mb 47f
5:10am 23 29 mph 1014.9mb 47f
5:00am 28 31 mph 1014.9mb 47f
4:50am 23 29 mph 1014.9mb 47f
4:40am 25 29 mph 1014.6mb 47f
4:30am 24 28 mph 1014.2mb 47f
4:20am 21 25 mph 1014.2mb 47f
4:10am 20 28 mph 1014.2mb 47f
4:00am 21 25 mph 1013.9mb 47f
3:50am 22 25 mph 1013.9mb 47f
3:40am 21 23 mph 1013.9mb 47f
3:30am 20 24 mph 1013.9mb 47f
3:20am 21 25 mph 1013.9mb 47f
3:10am 22 24 mph 1013.5mb 47f
3:00am 21 23 mph 1013.5mb 47f
2:50am 20 24 mph 1013.5mb 48f
2:40am 21 24 mph 1013.5mb 48f
2:30am 21 23 mph 1013.2mb 48f
2:20am 22 24 mph 1013.2mb 48f
2:10am 21 23 mph 1013.2mb 48f
2:00am 16 20 mph 1013.2mb 47f
1:50am 17 20 mph 1013.2mb 47f
1:40am 15 18 mph 1013.2mb 47f
1:30am 14 18 mph 1012.9mb 47f
1:20am 16 21 mph 1012.9mb 47f
1:10am 18 21 mph 1012.9mb 47f
1:09am 17 22 mph 1012.9mb 47f
1:00am 17 21 mph 1012.9mb 48f
12:50am 20 22 mph 1012.9mb 48f
12:40am 16 22 mph 1012.9mb 48f
12:30am 17 22 mph 1012.9mb 48f
12:20am 17 22 mph 1012.9mb 49f
12:10am 16 18 mph 1012.9mb 49f
12:09am 16 18 mph 1012.9mb 49f
12:00am 13 16 mph 1012.9mb 49f
Mon 10/20 11:50pm 15 17 mph 1012.9mb 49f
11:40pm 14 17 mph 1012.9mb 49f
11:30pm 11 15 mph 1012.9mb 49f
11:20pm 14 18 mph 1012.9mb 49f
11:10pm 15 20 mph 1012.9mb 49f
11:08pm 16 20 mph 1012.9mb 49f
11:00pm 16 18 mph 1012.9mb 49f
10:50pm 15 18 mph 1012.5mb 49f
10:40pm 15 20 mph 1012.5mb 49f
10:30pm 15 18 mph 1012.5mb 49f
10:20pm 14 16 mph 1012.5mb 49f
10:10pm 14 16 mph 1012.5mb 49f
10:08pm 13 18 mph 1012.5mb 49f
10:00pm 14 16 mph 1012.5mb 49f
9:50pm 14 18 mph 1012.5mb 49f
9:40pm 15 18 mph 1012.5mb 49f
9:30pm 16 18 mph 1012.5mb 49f
9:20pm 14 17 mph 1012.5mb 49f
9:10pm 14 16 mph 1012.5mb 49f
9:08pm 13 17 mph 1012.2mb 49f
9:00pm 13 15 mph 1012.2mb 49f
8:40pm 15 17 mph 1012.2mb 49f
8:30pm 14 17 mph 1012.2mb 49f
8:20pm 13 17 mph 1012.2mb 49f
8:10pm 15 17 mph 1012.2mb 50f
8:07pm 13 20 mph 1011.9mb 50f
8:00pm 15 20 mph 1011.9mb 50f
7:50pm 16 18 mph 1011.9mb 50f
7:40pm 13 17 mph 1011.9mb 50f
7:30pm 16 18 mph 1011.9mb 50f
7:20pm 18 20 mph 1011.5mb 50f
7:10pm 17 20 mph 1011.5mb 51f
7:07pm 16 22 mph 1011.5mb 51f
7:00pm 17 20 mph 1011.5mb 51f
6:50pm 17 22 mph 1011.5mb 51f
6:30pm 17 18 mph 1011.2mb 52f